When you browse on this site, cookies collect data to enhance your experience and personalize the content and advertising you see.
Visit our Privacy Policy to learn more. By continuing to use the site, you agree to this use of cookies and data.
  • In United Kingdom
  • List of Countries
  • For 7 days
  • Water Temperature
  • Satellite Maps
  • Weather Map
  • Weather Widgets
  • user-avatar
    Login

    Hourly Weather Asadabad

    Today, 26 May, Sunday

    Time Temperature Precipitation Wind Pressure Humidity
    00:00 +20°C° 0 mm 3 mps 657 mmHg 37%
    01:00 +19°C° 0 mm 3 mps 657 mmHg 36%
    02:00 +18°C° 0 mm 4 mps 657 mmHg 35%
    03:00 +18°C° 0 mm 4 mps 657 mmHg 34%
    04:00 +18°C° 0 mm 4 mps 657 mmHg 34%
    05:00 +17°C° 0 mm 4 mps 657 mmHg 33%
    06:00 +19°C° 0 mm 3 mps 657 mmHg 29%
    07:00 +21°C° 0 mm 2 mps 658 mmHg 26%
    08:00 +24°C° 0 mm 2 mps 658 mmHg 23%
    09:00 +25°C° 0 mm 2 mps 658 mmHg 21%
    10:00 +26°C° 0 mm 1 mps 658 mmHg 19%
    11:00 +27°C° 0 mm 1 mps 659 mmHg 17%
    12:00 +28°C° 0 mm 1 mps 659 mmHg 17%
    13:00 +29°C° 0 mm 2 mps 659 mmHg 16%
    14:00 +29°C° 0 mm 2 mps 659 mmHg 16%
    15:00 +30°C° 0 mm 2 mps 659 mmHg 15%
    16:00 +30°C° 0 mm 2 mps 658 mmHg 15%
    17:00 +30°C° 0 mm 2 mps 658 mmHg 15%
    18:00 +28°C° 0 mm 2 mps 658 mmHg 19%
    19:00 +26°C° 0 mm 1 mps 658 mmHg 22%
    20:00 +24°C° 0 mm 1 mps 658 mmHg 26%
    21:00 +23°C° 0 mm 2 mps 658 mmHg 25%
    22:00 +21°C° 0 mm 3 mps 659 mmHg 25%
    23:00 +20°C° 0 mm 4 mps 659 mmHg 24%

    Tomorrow, 27 May, Monday

    Time Temperature Precipitation Wind Pressure Humidity
    00:00 +20°C° 0 mm 4 mps 659 mmHg 24%
    01:00 +19°C° 0 mm 4 mps 658 mmHg 23%
    02:00 +19°C° 0 mm 4 mps 658 mmHg 23%
    03:00 +18°C° 0 mm 4 mps 658 mmHg 22%
    04:00 +18°C° 0 mm 4 mps 658 mmHg 22%
    05:00 +18°C° 0 mm 4 mps 658 mmHg 21%
    06:00 +20°C° 0 mm 3 mps 658 mmHg 19%
    07:00 +23°C° 0 mm 2 mps 659 mmHg 18%
    08:00 +25°C° 0 mm 2 mps 659 mmHg 16%
    09:00 +26°C° 0 mm 2 mps 659 mmHg 15%
    10:00 +28°C° 0 mm 1 mps 659 mmHg 14%
    11:00 +29°C° 0 mm 1 mps 659 mmHg 13%
    12:00 +29°C° 0 mm 2 mps 659 mmHg 13%
    13:00 +30°C° 0 mm 2 mps 659 mmHg 13%
    14:00 +31°C° 0 mm 2 mps 659 mmHg 13%
    15:00 +31°C° 0 mm 2 mps 659 mmHg 13%
    16:00 +31°C° 0 mm 2 mps 659 mmHg 13%
    17:00 +31°C° 0 mm 2 mps 658 mmHg 13%
    18:00 +29°C° 0 mm 1 mps 658 mmHg 19%
    19:00 +27°C° 0 mm 1 mps 658 mmHg 24%
    20:00 +22°C° 0 mm 0 mps 658 mmHg 29%
    21:00 +24°C° 0 mm 1 mps 658 mmHg 27%
    22:00 +24°C° 0 mm 2 mps 659 mmHg 24%
    23:00 +22°C° 0 mm 3 mps 659 mmHg 22%

    Day after tomorrow, 28 May, Tuesday

    Time Temperature Precipitation Wind Pressure Humidity
    00:00 +22°C° 0 mm 3 mps 658 mmHg 22%
    01:00 +21°C° 0 mm 3 mps 658 mmHg 23%
    02:00 +20°C° 0 mm 4 mps 658 mmHg 23%
    03:00 +20°C° 0 mm 4 mps 657 mmHg 23%
    04:00 +20°C° 0 mm 4 mps 657 mmHg 23%
    05:00 +19°C° 0 mm 4 mps 657 mmHg 24%
    06:00 +21°C° 0 mm 3 mps 658 mmHg 21%
    07:00 +25°C° 0 mm 2 mps 658 mmHg 19%
    08:00 +27°C° 0 mm 2 mps 659 mmHg 17%
    09:00 +28°C° 0 mm 1 mps 659 mmHg 16%
    10:00 +29°C° 0 mm 1 mps 659 mmHg 14%
    11:00 +31°C° 0 mm 1 mps 659 mmHg 13%
    12:00 +31°C° 0 mm 2 mps 659 mmHg 13%
    13:00 +32°C° 0 mm 2 mps 659 mmHg 13%
    14:00 +34°C° 0 mm 2 mps 659 mmHg 13%
    15:00 +32°C° 0 mm 2 mps 659 mmHg 13%
    16:00 +32°C° 0 mm 2 mps 658 mmHg 13%
    17:00 +32°C° 0 mm 2 mps 658 mmHg 13%
    18:00 +30°C° 0 mm 1 mps 658 mmHg 18%
    19:00 +28°C° 0 mm 1 mps 658 mmHg 24%
    20:00 +24°C° 0 mm 0 mps 658 mmHg 29%
    21:00 +25°C° 0 mm 1 mps 658 mmHg 26%
    22:00 +25°C° 0 mm 2 mps 658 mmHg 24%
    23:00 +25°C° 0 mm 3 mps 658 mmHg 21%

    29 May, Wednesday

    Time Temperature Precipitation Wind Pressure Humidity
    00:00 +24°C° 0 mm 3 mps 658 mmHg 21%
    01:00 +22°C° 0 mm 3 mps 658 mmHg 21%
    02:00 +22°C° 0 mm 4 mps 657 mmHg 21%
    03:00 +21°C° 0 mm 4 mps 657 mmHg 21%
    04:00 +21°C° 0 mm 4 mps 657 mmHg 21%
    05:00 +21°C° 0 mm 4 mps 657 mmHg 21%
    06:00 +24°C° 0 mm 3 mps 657 mmHg 19%
    07:00 +26°C° 0 mm 2 mps 658 mmHg 17%
    08:00 +28°C° 0 mm 1 mps 658 mmHg 16%
    09:00 +30°C° 0 mm 1 mps 658 mmHg 15%
    10:00 +31°C° 0 mm 1 mps 658 mmHg 13%
    11:00 +32°C° 0 mm 1 mps 659 mmHg 12%
    12:00 +34°C° 0 mm 2 mps 658 mmHg 12%
    13:00 +34°C° 0 mm 2 mps 658 mmHg 12%
    14:00 +35°C° 0 mm 2 mps 658 mmHg 12%
    15:00 +35°C° 0 mm 2 mps 658 mmHg 13%
    16:00 +35°C° 0 mm 2 mps 658 mmHg 13%
    17:00 +35°C° 0 mm 2 mps 657 mmHg 13%
    18:00 +31°C° 0 mm 1 mps 657 mmHg 18%
    19:00 +29°C° 0 mm 1 mps 657 mmHg 23%
    20:00 +25°C° 0 mm 0 mps 657 mmHg 28%
    21:00 +26°C° 0 mm 1 mps 657 mmHg 26%
    22:00 +26°C° 0 mm 2 mps 657 mmHg 24%
    23:00 +26°C° 0 mm 3 mps 658 mmHg 22%

    30 May, Thursday

    Time Temperature Precipitation Wind Pressure Humidity
    00:00 +25°C° 0 mm 3 mps 657 mmHg 22%
    01:00 +25°C° 0 mm 3 mps 657 mmHg 22%
    02:00 +24°C° 0 mm 3 mps 656 mmHg 23%
    03:00 +24°C° 0 mm 3 mps 656 mmHg 23%
    04:00 +22°C° 0 mm 3 mps 656 mmHg 23%
    05:00 +22°C° 0 mm 3 mps 656 mmHg 23%
    06:00 +25°C° 0 mm 3 mps 656 mmHg 21%
    07:00 +27°C° 0 mm 2 mps 657 mmHg 19%
    08:00 +30°C° 0 mm 1 mps 658 mmHg 17%
    09:00 +31°C° 0 mm 1 mps 658 mmHg 16%
    10:00 +32°C° 0 mm 1 mps 658 mmHg 14%
    11:00 +33°C° 0 mm 1 mps 658 mmHg 13%
    12:00 +35°C° 0 mm 2 mps 658 mmHg 13%
    13:00 +35°C° 0 mm 2 mps 657 mmHg 13%
    14:00 +36°C° 0 mm 3 mps 657 mmHg 13%
    15:00 +36°C° 0 mm 2 mps 657 mmHg 13%
    16:00 +36°C° 0 mm 2 mps 657 mmHg 13%
    17:00 +35°C° 0 mm 2 mps 656 mmHg 14%
    18:00 +32°C° 0 mm 1 mps 656 mmHg 20%
    19:00 +30°C° 0 mm 1 mps 656 mmHg 25%
    20:00 +26°C° 0 mm 0 mps 656 mmHg 31%
    21:00 +27°C° 0 mm 1 mps 656 mmHg 29%
    22:00 +27°C° 0 mm 2 mps 656 mmHg 27%
    23:00 +27°C° 0 mm 3 mps 657 mmHg 25%

    31 May, Friday

    Time Temperature Precipitation Wind Pressure Humidity
    00:00 +26°C° 0 mm 3 mps 656 mmHg 26%
    01:00 +26°C° 0 mm 3 mps 656 mmHg 27%
    02:00 +25°C° 0 mm 4 mps 656 mmHg 28%
    03:00 +25°C° 0 mm 4 mps 655 mmHg 27%
    04:00 +23°C° 0 mm 4 mps 655 mmHg 27%
    05:00 +23°C° 0 mm 4 mps 655 mmHg 26%
    06:00 +26°C° 0 mm 3 mps 656 mmHg 23%
    07:00 +28°C° 0 mm 2 mps 657 mmHg 21%
    08:00 +30°C° 0 mm 2 mps 657 mmHg 18%
    09:00 +31°C° 0 mm 2 mps 658 mmHg 17%
    10:00 +32°C° 0 mm 2 mps 658 mmHg 16%
    11:00 +34°C° 0 mm 2 mps 658 mmHg 15%
    12:00 +35°C° 0 mm 2 mps 658 mmHg 15%
    13:00 +36°C° 0 mm 3 mps 658 mmHg 14%
    14:00 +36°C° 0 mm 3 mps 657 mmHg 14%
    15:00 +36°C° 0 mm 3 mps 657 mmHg 14%
    16:00 +36°C° 0 mm 3 mps 657 mmHg 14%
    17:00 +36°C° 0 mm 2 mps 657 mmHg 15%
    18:00 +34°C° 0 mm 2 mps 657 mmHg 20%
    19:00 +31°C° 0 mm 1 mps 657 mmHg 26%
    20:00 +28°C° 0 mm 1 mps 657 mmHg 31%
    21:00 +28°C° 0.1 mm 2 mps 657 mmHg 32%
    22:00 +28°C° 0.1 mm 3 mps 657 mmHg 32%
    23:00 +27°C° 0.1 mm 4 mps 657 mmHg 33%
    Show more